Regional Weather Roundup
Issued by NWS Memphis, TN

Current Version | Previous Version | Text Only | Print | Product List | Glossary On
Versions: 1 2 3 4 5 6 7 8 9 10 11 12 13 14 15 16 17 18 19 20 21 22 23 24 25 26 27 28 29 30 31 32 33 34 35 36 37 38 39 40 41 42 43 44 45 46 47 48 49 50
507
ASUS44 KMEG 081110
RWRMEG
MEMPHIS CWA HOURLY WEATHER ROUNDUP
NATIONAL WEATHER SERVICE MEMPHIS TN
500 AM CST THU DEC 08 2016

...WEST TENNESSEE...

CITY           SKY/WX    TMP DP  RH WIND       PRES   REMARKS
MEMPHIS INTL   CLOUDY    38  24  57 N8        30.40R WCI  32
NWS MEMPHIS      N/A     37 N/A N/A MISG        N/A
JACKSON        PTCLDY    35  25  66 N5        30.37R WCI  31
BOLIVAR        CLEAR     37  25  60 NW8G14    30.36R WCI  31
LEXINGTON      CLEAR     34  19  55 N6        30.33S WCI  29
DYERSBURG      CLOUDY    34  25  69 N7        30.39R WCI  28
UNION CITY     CLEAR     30  25  80 NW13      30.37R WCI  20
PARIS          PTCLDY    30  19  64 VRB3      30.35R
HUNTINGDON     CLEAR     34  23  64 CALM      30.35R


...EASTERN ARKANSAS...

CITY           SKY/WX    TMP DP  RH WIND       PRES   REMARKS
JONESBORO      CLOUDY    34  23  64 NW9       30.43R WCI  27
WEST MEMPHIS   CLOUDY    36  26  67 N7        30.41R WCI  30
BATESVILLE     MOCLDY    30  21  69 N6        30.48R WCI  24
NEWPORT        CLOUDY    33  24  69 N18       30.46R WCI  22
WALNUT RIDGE   CLOUDY    32  21  64 NW14      30.45R WCI  22
BLYTHEVILLE    PTCLDY    34  28  79 N10       30.42R WCI  26
SEARCY         CLOUDY    35  26  69 N13       30.47R WCI  26
STUTTGART      CLOUDY    37  23  56 N13       30.43R WCI  29
PINE BLUFF     CLOUDY    39  26  59 N15       30.42R WCI  31
MONTICELLO     CLOUDY    40  25  55 N10       30.40R WCI  33


...NORTH MISSISSIPPI...

CITY           SKY/WX    TMP DP  RH WIND       PRES   REMARKS
TUPELO         CLOUDY    41  27  57 NW9G20    30.34R
OXFORD         CLOUDY    37  25  60 N10G16    30.38R WCI  30
BATESVILLE     CLOUDY    39  27  60 N7        30.39R WCI  34
TUNICA         CLOUDY    36  28  75 N14       30.40S WCI  27
CLARKSDALE     CLOUDY    39  28  65 N15G21    30.40R WCI  31
CORINTH        CLOUDY    39  23  52 N9        30.35R WCI  33
GREENWOOD      CLOUDY    42  30  62 N8        30.35R
COLUMBUS       CLOUDY    42  34  74 N9        30.30R
STARKVILLE     CLOUDY    41  34  75 N5        30.33R
GOLDEN TRIANGL CLOUDY    43  30  61 N12G17    30.26S


...SOUTHEAST MISSOURI...

CITY           SKY/WX    TMP DP  RH WIND       PRES   REMARKS
KENNETT        PTCLDY    32  23  69 N12G21    30.42R WCI  23
WEST PLAINS    CLEAR     21  13  71 NW7       30.45R WCI  12
POPLAR BLUFF   PTCLDY    28  19  69 NW7       30.44R WCI  21
CAPE GIRARDEAU CLEAR     27  16  63 NW13      30.42R WCI  16


...NORTHWEST ALABAMA...

CITY           SKY/WX    TMP DP  RH WIND       PRES   REMARKS
MUSCLE SHOALS  CLOUDY    40  24  53 N7        30.32R


...MIDDLE TENNESSEE...

CITY           SKY/WX    TMP DP  RH WIND       PRES   REMARKS
NASHVILLE      PTCLDY    34  20  56 N8        30.33R WCI  27
CLARKSVILLE    MOCLDY    30  21  69 NW6       30.34R WCI  24
COLUMBIA       CLEAR     36  25  64 CALM      30.30R


...WESTERN KENTUCKY...

CITY           SKY/WX    TMP DP  RH WIND       PRES   REMARKS
PADUCAH        MOCLDY    30  20  66 NW10      30.38R WCI  21
FORT CAMPBELL  PTCLDY    32  21  64 NW7       30.33R WCI  25


...CENTRAL ARKANSAS...

CITY           SKY/WX    TMP DP  RH WIND       PRES   REMARKS
LITTLE ROCK    CLOUDY    35  26  69 N9        30.45R WCI  28


SKY/WX REPORTED AS FAIR MEANS FEW OR NO CLOUDS BELOW
12 THOUSAND FEET.





USA.gov is the U.S. government's official web portal to all federal, state and local government web resources and services.